KUIPER-00035

导读 | 豆包AI

KUIPER-00035是美国亚马逊“柯伊伯项目”(Project Kuiper)星座的一颗低轨宽带通信卫星,于2025年4月28日发射。该项目计划部署3236颗Ka波段卫星,构建覆盖全球的低延迟高速卫星互联网星座,旨在为全球未覆盖互联网的偏远地区提供宽带接入服务,同时可满足企业通信、无线回程等多元场景需求,是全球低轨卫星互联网建设的重要组成部分。

基本信息
目录编号:
63748
目录名称:
KUIPER-00035
国际标识:
2025-088AA
轨道中心:
EARTH
卫星名称:
KUIPER-00035
卫星全名:
KUIPER-00035
卫星状态:
在轨 (已飞行320 天)
发射日期:
2025-04-28 UTC
国别 :
美国 (US)
星等 :
--
轨道信息
数据来源 国际轨道数据
星历时间: 2026-03-13T15:42:39+0800
19小时前
查看轨道信息
半长轴: 6996.901km
偏心率: 0.0003951
轨道倾角: 51.899°
近地点辐角 81.540°
升交点赤经 97.722°
平近点角 278.601°
近地点: 615.999km
远地点: 621.529km
周期: 97.077分钟
每日圈数: 14.833519
详细信息
使用方式:
暂无
2D轨道图
3D轨道图
轨道高度分析图
轨道倾角分析图
轨道综合分析图
查看轨道综合分析图